Regional Weather Roundup
Issued by NWS

Home | Current Version | Previous Version | Graphics & Text | Print | Product List | Glossary On
Versions: 1 2 3 4 5 6 7 8 9 10 11 12 13 14 15 16 17 18 19 20 21 22 23 24 25 26 27 28 29 30 31 32 33 34 35 36 37 38 39 40 41 42 43 44 45 46 47 48 49 50
000
ASUS43 KBIS 052001
RWRND

NORTH DAKOTA REGIONAL WEATHER ROUNDUP
NATIONAL WEATHER SERVICE BISMARCK ND
200 PM CST THU MAR 05 2015

NOTE: "FAIR" INDICATES FEW OR NO CLOUDS BELOW 12,000 FEET WITH NO
SIGNIFICANT WEATHER AND/OR OBSTRUCTIONS TO VISIBILITY.


NDZ001>003-009>011-017-052100-
NORTHWEST NORTH DAKOTA

CITY           SKY/WX    TMP DP  RH WIND       PRES   REMARKS
WILLISTON      SUNNY     33  11  39 W8        30.05
MINOT          SUNNY     23   9  55 SW14      30.03F WCI  11
MINOT AFB      SUNNY     23  12  62 W13       30.03F WCI  11
$$

NDZ018>021-031>035-040>046-052100-
SOUTHWEST NORTH DAKOTA

CITY           SKY/WX    TMP DP  RH WIND       PRES   REMARKS
BISMARCK       SUNNY     36   6  28 SW16      30.07
DICKINSON      SUNNY     40  10  29 NW15G28   30.00F
GARRISON         N/A     28  13  53 W10       30.05F WCI  19
HETTINGER ARPT SUNNY     43  10  26 NW20G30   30.03
$$

NDZ004>008-012>016-024-026-027-054-052100-
NORTHEAST NORTH DAKOTA

CITY           SKY/WX    TMP DP  RH WIND       PRES   REMARKS
GRAND FORKS    SUNNY     20   9  62 S21       30.20  WCI   4
GRND FRKS AFB  SUNNY     25   6  44 S20G26    30.17F WCI  11
DEVILS LAKE    SUNNY     21   9  58 S10       30.09F WCI  10
$$

NDZ022-023-025-028>030-036>039-047>053-052100-
SOUTHEAST NORTH DAKOTA

CITY           SKY/WX    TMP DP  RH WIND       PRES   REMARKS
FARGO          SUNNY     21   4  47 S23       30.26  WCI   5
JAMESTOWN      SUNNY     26  10  50 SW17G25   30.13F WCI  13
$$



USA.gov is the U.S. government's official web portal to all federal, state and local government web resources and services.